Вернуться в каталог

STARLINK-37649

АктивенСвязьVLEO
NORAD 69202·PAYLOAD·🇺🇸 United States

Запущен May 25, 2026 с Cape Canaveral Space Force Station

Loading…

Ближайшие Пролёты (ближайшие 24 часа)

TLE

СвежийSource: CelesTrak SupGP

Эпоха: Sep 15, 2026, 03:25 UTC

1 69202C 26114W   26258.14284722  .00048207  00000+0  14244-2 0  2581
2 69202  53.1572 138.6275 0001228  83.2871 341.6128 15.34365319    14

Отслеживайте STARLINK-37649 в реальном времени с AllMySat

Download on the App Store